VJC565 WSSS-VVDN

Flight info

Callsign VJC565
Flight time N/A
Altitude 35000
Route VMR6A VMR M771 DUDIS/K0857F350 DCT AC/K0802F270 W1 BMT Q1 SADIN SADIN2K
Aircraft A21N/M-SDE3FGHIRWY/LB1

Departure

Time N/A
Airport Singapore Changi Airport (WSSS)

Arrival

Time 2026-04-17 13:58
Airport Da Nang International Airport (VVDN)
Time Latitude Longitude Altitude Speed Heading
2026-04-17 13:29 13.78265 108.14878 35017 ft 425 kts 358°
2026-04-17 13:29 13.84207 108.15007 35032 ft 425 kts 358°
2026-04-17 13:30 13.90144 108.15139 35038 ft 425 kts 358°
2026-04-17 13:30 13.96085 108.15269 35037 ft 425 kts 358°
2026-04-17 13:31 14.02063 108.15399 35042 ft 425 kts 358°
2026-04-17 13:31 14.08013 108.15526 35057 ft 425 kts 358°
2026-04-17 13:32 14.13951 108.15652 35064 ft 426 kts 358°
2026-04-17 13:32 14.19915 108.15780 35074 ft 426 kts 358°
2026-04-17 13:33 14.25848 108.15908 35077 ft 426 kts 358°
2026-04-17 13:33 14.31799 108.16035 35080 ft 426 kts 358°
2026-04-17 13:34 14.37769 108.16167 35074 ft 427 kts 358°
2026-04-17 13:34 14.43457 108.16292 35068 ft 427 kts 358°
2026-04-17 13:35 14.49478 108.16425 35076 ft 427 kts 358°
2026-04-17 13:35 14.55485 108.16555 35019 ft 427 kts 358°
2026-04-17 13:36 14.58509 108.16621 34376 ft 432 kts 358°
2026-04-17 13:36 14.61506 108.16685 33321 ft 440 kts 358°
2026-04-17 13:36 14.64619 108.16753 32434 ft 443 kts 358°
2026-04-17 13:36 14.67679 108.16821 31759 ft 444 kts 358°
2026-04-17 13:37 14.70775 108.16888 31090 ft 444 kts 358°
2026-04-17 13:37 14.72845 108.16935 30645 ft 445 kts 358°
2026-04-17 13:37 14.76987 108.17027 29748 ft 445 kts 358°
2026-04-17 13:37 14.80090 108.17095 29071 ft 445 kts 359°
2026-04-17 13:38 14.83182 108.17163 28396 ft 445 kts 359°
2026-04-17 13:38 14.86326 108.17233 27707 ft 446 kts 359°
2026-04-17 13:38 14.89400 108.17300 27007 ft 447 kts 359°
2026-04-17 13:38 14.92530 108.17370 26277 ft 449 kts 359°
2026-04-17 13:39 14.95643 108.17441 25717 ft 445 kts 359°
2026-04-17 13:39 14.98740 108.17512 25233 ft 440 kts 359°
2026-04-17 13:39 15.01823 108.17583 24739 ft 436 kts 359°
2026-04-17 13:39 15.04837 108.17622 24252 ft 431 kts 356°
2026-04-17 13:40 15.07818 108.17337 23756 ft 426 kts 349°
2026-04-17 13:40 15.10671 108.16673 23267 ft 421 kts 342°
2026-04-17 13:40 15.12533 108.16034 22942 ft 418 kts 339°
2026-04-17 13:40 15.16201 108.14632 22282 ft 414 kts 338°
2026-04-17 13:41 15.18903 108.13574 21790 ft 411 kts 338°
2026-04-17 13:41 15.21620 108.12515 21281 ft 408 kts 338°
2026-04-17 13:41 15.24295 108.11476 20794 ft 405 kts 339°
2026-04-17 13:41 15.26964 108.10444 20344 ft 402 kts 339°
2026-04-17 13:42 15.29561 108.09441 19873 ft 399 kts 339°
2026-04-17 13:42 15.32165 108.08437 19419 ft 395 kts 339°
2026-04-17 13:42 15.34766 108.07433 18959 ft 392 kts 339°
2026-04-17 13:42 15.37290 108.06461 18500 ft 390 kts 339°
2026-04-17 13:43 15.39864 108.05498 18013 ft 388 kts 342°
2026-04-17 13:43 15.42463 108.04733 17533 ft 385 kts 346°
2026-04-17 13:43 15.45099 108.04194 17082 ft 383 kts 351°
2026-04-17 13:43 15.47710 108.03799 16621 ft 381 kts 352°
2026-04-17 13:44 15.50365 108.03425 16175 ft 379 kts 352°
2026-04-17 13:44 15.52968 108.03055 15692 ft 377 kts 352°
2026-04-17 13:44 15.55559 108.02681 15233 ft 374 kts 352°
2026-04-17 13:44 15.58099 108.02312 14982 ft 364 kts 352°
2026-04-17 13:45 15.60599 108.01951 14779 ft 354 kts 352°
2026-04-17 13:45 15.63013 108.01602 14601 ft 343 kts 352°
2026-04-17 13:45 15.65364 108.01262 14455 ft 331 kts 351°
2026-04-17 13:45 15.67607 108.00938 14308 ft 320 kts 351°
2026-04-17 13:46 15.69766 108.00626 14136 ft 310 kts 351°
2026-04-17 13:46 15.71900 108.00361 13923 ft 302 kts 358°
2026-04-17 13:46 15.73909 108.00834 13716 ft 296 kts 29°
2026-04-17 13:46 15.74969 108.01720 13571 ft 293 kts 49°
2026-04-17 13:47 15.75845 108.03615 13177 ft 294 kts 79°
2026-04-17 13:47 15.76113 108.06416 12748 ft 292 kts 83°
2026-04-17 13:47 15.76300 108.08495 12383 ft 291 kts 87°
2026-04-17 13:47 15.75898 108.10548 11962 ft 293 kts 118°
2026-04-17 13:48 15.74529 108.12051 11584 ft 291 kts 150°
2026-04-17 13:48 15.72599 108.12630 11248 ft 287 kts 175°
2026-04-17 13:48 15.70607 108.12807 10921 ft 285 kts 174°
2026-04-17 13:48 15.68617 108.13030 10582 ft 284 kts 173°
2026-04-17 13:49 15.66666 108.13285 10261 ft 281 kts 172°
2026-04-17 13:49 15.64718 108.13558 9951 ft 279 kts 171°
2026-04-17 13:49 15.62810 108.13889 9612 ft 278 kts 162°
2026-04-17 13:49 15.61202 108.14930 9230 ft 272 kts 126°
2026-04-17 13:50 15.60457 108.16685 8902 ft 265 kts 93°
2026-04-17 13:50 15.60607 108.18564 8586 ft 262 kts 77°
2026-04-17 13:50 15.60945 108.20436 8261 ft 262 kts 78°
2026-04-17 13:50 15.61239 108.22266 7953 ft 260 kts 79°
2026-04-17 13:51 15.61650 108.24080 7570 ft 258 kts 62°
2026-04-17 13:51 15.62843 108.25415 7214 ft 253 kts 28°
2026-04-17 13:51 15.64532 108.25876 6864 ft 252 kts 359°
2026-04-17 13:51 15.66261 108.25622 6555 ft 251 kts 351°
2026-04-17 13:52 15.68002 108.25330 6231 ft 250 kts 353°
2026-04-17 13:52 15.69728 108.25063 5913 ft 248 kts 353°
2026-04-17 13:52 15.71448 108.24810 5662 ft 248 kts 353°
2026-04-17 13:52 15.73151 108.24567 5381 ft 249 kts 353°
2026-04-17 13:53 15.74889 108.24321 5058 ft 249 kts 353°
2026-04-17 13:53 15.76612 108.24076 4741 ft 249 kts 353°
2026-04-17 13:53 15.78332 108.23830 4438 ft 248 kts 353°
2026-04-17 13:53 15.80037 108.23570 4171 ft 249 kts 352°
2026-04-17 13:54 15.83479 108.22903 3490 ft 249 kts 351°
2026-04-17 13:54 15.85199 108.22615 3165 ft 248 kts 352°
2026-04-17 13:55 15.88606 108.22116 2655 ft 238 kts 353°
2026-04-17 13:55 15.90231 108.21884 2449 ft 232 kts 353°
2026-04-17 13:55 15.93417 108.21426 1858 ft 226 kts 353°
2026-04-17 13:56 15.96476 108.20983 1356 ft 213 kts 353°
2026-04-17 13:56 15.97902 108.20776 1081 ft 197 kts 353°
2026-04-17 13:56 15.99211 108.20586 823 ft 182 kts 353°
2026-04-17 13:57 16.00420 108.20411 564 ft 167 kts 353°
2026-04-17 13:57 16.01522 108.20252 346 ft 151 kts 353°
2026-04-17 13:57 16.03580 108.19953 58 ft 140 kts 353°
2026-04-17 13:58 16.04414 108.19834 56 ft 96 kts 352°
2026-04-17 13:58 16.05255 108.19710 52 ft 63 kts 352°
2026-04-17 13:58 16.05652 108.19655 50 ft 26 kts 352°
2026-04-17 13:59 16.05741 108.19840 49 ft 14 kts 83°
2026-04-17 13:59 16.05754 108.19947 46 ft 15 kts 89°
2026-04-17 13:59 16.05669 108.19993 46 ft 15 kts 172°
2026-04-17 14:00 16.05600 108.20003 45 ft 15 kts 170°
2026-04-17 14:00 16.05495 108.20018 45 ft 15 kts 173°
2026-04-17 14:00 16.05397 108.20041 47 ft 6 kts 115°
2026-04-17 14:00 16.05398 108.20089 47 ft 7 kts 78°
2026-04-17 14:01 16.05407 108.20145 47 ft 8 kts 84°
2026-04-17 14:01 16.05408 108.20156 47 ft 0 kts 82°
2026-04-17 14:01 16.05409 108.20162 47 ft 0 kts 82°